SCP
0 0 -0 -1 -0 -0 -0 -0 -1 -0 -1 -1 -1 -1 -1 -0 -0 -0 -0 -0 0 0 0 0 0 0 0 0 0 0 0 0 0
0 0 -0 -1 -0 -0 -0 -0 -0 -1 -1 -1 -0 -0 0 0 0 0 0 0 0 0 0 0 0 0 0 0 0 0 0 0 0
0 0 0 -0 -0 -0 -0 -0 -0 -0 -1 -1 -1 -0 -0 0 0 0 0 0 0 0 1 0 0 0 0 0 0 0 0 0 0
0 0 0 0 -0 -0 -0 -0 -1 -0 -1 -1 -1 -0 -0 0 0 0 0 1 1 1 0 0 0 0 0 0 0 0 0 0 0
0 0 0 0 0 -0 -0 -1 -1 -1 -1 -1 -1 -1 -0 -0 -0 0 1 1 1 1 0 0 0 0 0 0 0 0 0 0 0
0 0 0 0 0 0 0 -0 -0 -1 -1 -1 -1 -1 -1 -0 -0 0 0 1 1 1 0 0 0 0 0 0 0 0 0 0 0
0 0 0 0 0 1 1 0 -1 -2 -2 -1 -1 -1 -1 -0 0 0 1 1 1 0 0 0 0 0 0 0 0 0 0 0 0
0 0 0 0 0 1 1 1 -0 -1 -1 -1 -0 -0 -1 -0 1 1 1 1 0 0 0 0 0 0 0 0 0 0 0 0 0
0 0 0 0 0 1 1 1 1 1 1 0 1 1 0 0 1 1 0 0 0 0 0 0 0 0 0 0 0 0 0 0 0
0 0 0 0 0 0 1 1 1 1 2 1 2 1 1 1 1 1 1 0 0 0 0 0 0 0 0 0 0 0 0 0 0
0 0 0 0 0 0 0 0 1 1 2 3 2 1 0 1 1 1 1 0 0 0 0 0 0 0 0 0 0 0 0 0 0
1 1 0 -0 0 1 0 0 1 2 3 2 3 1 0 1 1 0 0 0 0 0 0 0 0 0 0 0 0 0 0 0 0
1 1 1 0 -0 0 1 1 1 2 3 3 2 2 1 1 1 1 0 0 0 0 0 0 0 0 0 0 0 0 0 0 0
1 2 2 1 1 0 2 2 2 2 3 3 2 0 1 2 1 0 0 0 0 0 0 0 0 0 0 0 0 0 0 0 -0
2 2 2 2 1 3 3 4 5 3 2 2 1 1 2 1 0 0 0 0 0 0 0 0 0 0 0 0 0 0 0 0 0
1 1 1 1 2 2 2 2 3 3 2 1 1 2 1 1 1 0 0 0 0 0 0 0 0 0 0 0 0 0 0 0 0
1 1 1 0 0 0 0 1 2 1 1 2 2 2 1 0 0 0 0 0 0 0 0 0 0 0 0 0 0 0 0 0 0
0 0 0 0 0 0 0 1 1 1 1 2 2 1 1 0 0 0 0 0 0 0 0 0 0 0 0 0 0 0 0 0 0
0 -0 -0 -0 0 0 0 0 1 1 2 2 2 1 1 0 0 0 0 0 0 0 0 0 0 0 0 0 0 0 0 0 0
1 0 -0 0 -0 0 0 0 1 1 1 1 1 1 0 0 0 0 0 0 0 0 0 0 0 0 0 0 0 0 0 0 0
Wind_Speed_500mb
5 40 63 71 66 61 60 60 58 55 58 55 54 55 56 52 44 32 26 26 24 21 23 21 26 17 14 15 11 9 12 7 2
14 29 51 71 72 67 63 61 61 63 65 58 52 50 52 49 47 40 30 30 27 24 21 32 30 16 13 13 13 9 7 6 2
14 22 42 62 71 70 67 63 61 61 69 66 57 49 48 47 47 43 38 34 32 26 29 25 20 15 16 16 16 13 9 0 3
5 25 40 53 67 71 70 65 64 62 60 59 59 54 49 47 45 43 40 38 32 31 34 26 22 21 18 13 10 8 18 22 9
15 17 35 48 62 69 72 69 69 67 64 64 60 56 52 48 46 45 45 42 37 38 34 27 24 22 18 16 12 11 12 16 10
13 14 27 38 56 68 71 71 71 72 71 65 60 60 54 51 48 51 47 42 41 39 34 29 27 24 20 16 14 16 15 15 13
16 21 27 36 50 61 68 71 72 74 68 64 63 62 59 58 52 48 42 41 39 35 32 30 27 24 21 19 19 18 18 17 18
23 24 29 39 47 59 65 69 70 70 63 65 65 68 61 58 52 51 50 45 42 36 33 31 27 24 21 20 20 20 21 17 16
27 29 28 35 45 55 62 65 67 63 66 69 69 70 60 57 60 53 50 46 43 38 34 31 27 25 24 24 20 34 25 19 15
19 22 25 30 46 53 57 58 57 57 63 65 66 68 64 66 62 57 54 48 42 39 36 30 28 27 28 28 36 30 25 24 14
26 25 23 27 35 49 53 52 55 55 60 69 70 71 74 71 68 63 57 49 49 46 38 31 28 29 30 29 25 32 27 28 18
26 29 25 22 27 37 46 49 55 60 66 70 76 82 81 75 69 63 58 56 53 47 40 34 34 32 32 30 28 32 28 29 18
29 26 20 16 18 32 40 45 53 64 69 82 83 86 85 73 65 61 56 58 56 49 38 35 31 30 30 30 25 29 28 27 20
29 24 21 10 11 26 36 44 51 60 69 77 80 84 76 68 68 62 54 57 55 48 45 40 39 34 32 30 27 29 26 26 29
27 26 19 12 4 10 25 38 54 58 65 73 80 79 73 73 65 59 62 64 60 51 45 38 43 39 33 31 30 31 29 28 29
25 25 19 10 5 10 16 37 50 56 71 77 71 72 68 69 66 65 63 59 51 46 41 36 41 39 36 34 32 32 33 28 28
27 23 17 15 13 16 21 33 45 58 64 68 76 71 62 60 62 56 51 53 48 41 41 40 38 36 36 34 34 32 33 30 30
27 17 17 13 12 15 18 32 48 48 62 73 63 66 64 63 53 52 45 43 44 39 37 40 37 36 33 34 36 35 35 29 27
34 25 19 16 12 16 23 28 42 48 62 65 68 63 65 55 51 45 43 41 37 43 38 46 45 43 38 36 40 40 43 42 35
22 28 28 25 22 20 22 26 43 56 64 65 69 61 46 45 44 47 46 44 42 43 55 54 59 53 51 38 44 34 35 34 41
Wind_Direction_500mb
228 196 203 198 202 198 195 196 194 194 197 199 199 203 205 203 197 202 202 209 203 199 205 210 217 210 228 242 268 284 301 335 13
173 205 203 197 200 199 194 197 195 194 201 203 202 199 200 199 200 193 205 211 200 208 198 216 232 220 226 244 266 271 339 259 27
148 205 201 199 199 200 195 197 197 196 204 208 205 194 196 197 200 199 201 200 205 201 200 200 221 217 236 248 266 273 157 254 210
205 194 195 201 199 200 199 198 198 196 196 194 197 192 193 194 198 201 200 202 200 195 211 219 231 236 236 244 257 229 176 190 231
298 221 202 199 198 197 198 196 196 197 197 196 194 192 193 193 193 196 199 199 196 204 214 222 227 229 232 242 229 199 169 138 181
317 254 217 204 197 195 195 195 195 196 198 196 192 190 193 192 191 196 197 197 204 207 213 216 221 226 228 218 187 167 167 178 158
314 280 241 219 201 198 196 198 197 194 195 194 190 191 191 192 188 192 185 189 197 203 208 217 220 220 218 198 178 167 172 174 155
312 287 253 220 212 199 198 198 196 194 194 191 190 190 187 189 185 185 187 197 200 203 210 216 216 212 199 185 173 169 168 161 157
308 294 266 233 215 206 204 203 198 193 189 189 187 184 182 184 186 185 198 194 203 209 207 210 209 199 189 173 161 202 180 157 163
311 312 281 253 224 216 208 205 198 195 187 185 185 179 184 187 188 190 195 197 205 202 204 209 203 190 183 168 204 212 192 168 170
316 310 293 265 240 219 211 207 200 192 187 183 184 183 191 194 190 191 196 200 198 196 201 204 193 188 187 181 216 204 186 164 174
327 318 304 278 240 222 211 205 194 189 187 184 186 191 192 191 188 193 197 196 192 194 196 194 189 190 188 185 209 193 194 184 185
344 341 330 303 240 210 202 199 191 188 188 193 193 195 191 189 186 194 196 196 197 197 200 193 177 188 190 187 206 199 199 196 185
348 345 351 336 250 212 200 196 192 189 193 196 197 193 188 185 192 198 205 200 201 200 188 182 173 187 189 191 200 196 193 185 179
348 352 2 357 253 198 191 190 194 193 194 197 196 191 191 190 195 193 195 202 198 189 178 185 176 180 187 191 197 197 192 184 179
351 354 348 344 274 227 204 209 209 201 202 198 195 189 191 190 189 188 196 197 193 186 184 177 181 183 187 192 198 205 202 198 200
335 340 335 310 288 266 236 204 202 211 206 202 194 198 189 187 188 194 193 190 193 190 185 183 191 191 193 195 203 209 215 213 214
323 321 314 311 284 256 241 219 211 213 207 191 188 195 188 190 185 188 189 184 193 186 193 191 192 196 197 200 207 213 210 206 207
297 295 287 305 290 266 239 222 218 212 201 194 193 190 191 183 192 185 185 185 191 183 199 196 195 196 195 207 214 208 207 214 216
279 294 271 271 311 293 266 225 211 199 200 201 196 193 184 186 189 184 190 192 194 193 198 204 199 198 196 198 207 213 207 221 216
Wind_Speed_850mb
5 40 63 71 66 61 60 60 58 55 58 55 54 55 56 52 44 32 26 26 24 21 23 21 26 17 14 15 11 9 12 7 2
14 29 51 71 72 67 63 61 61 63 65 58 52 50 52 49 47 40 30 30 27 24 21 32 30 16 13 13 13 9 7 6 2
14 22 42 62 71 70 67 63 61 61 69 66 57 49 48 47 47 43 38 34 32 26 29 25 20 15 16 16 16 13 9 0 3
5 25 40 53 67 71 70 65 64 62 60 59 59 54 49 47 45 43 40 38 32 31 34 26 22 21 18 13 10 8 18 22 9
15 17 35 48 62 69 72 69 69 67 64 64 60 56 52 48 46 45 45 42 37 38 34 27 24 22 18 16 12 11 12 16 10
13 14 27 38 56 68 71 71 71 72 71 65 60 60 54 51 48 51 47 42 41 39 34 29 27 24 20 16 14 16 15 15 13
16 21 27 36 50 61 68 71 72 74 68 64 63 62 59 58 52 48 42 41 39 35 32 30 27 24 21 19 19 18 18 17 18
23 24 29 39 47 59 65 69 70 70 63 65 65 68 61 58 52 51 50 45 42 36 33 31 27 24 21 20 20 20 21 17 16
27 29 28 35 45 55 62 65 67 63 66 69 69 70 60 57 60 53 50 46 43 38 34 31 27 25 24 24 20 34 25 19 15
19 22 25 30 46 53 57 58 57 57 63 65 66 68 64 66 62 57 54 48 42 39 36 30 28 27 28 28 36 30 25 24 14
26 25 23 27 35 49 53 52 55 55 60 69 70 71 74 71 68 63 57 49 49 46 38 31 28 29 30 29 25 32 27 28 18
26 29 25 22 27 37 46 49 55 60 66 70 76 82 81 75 69 63 58 56 53 47 40 34 34 32 32 30 28 32 28 29 18
29 26 20 16 18 32 40 45 53 64 69 82 83 86 85 73 65 61 56 58 56 49 38 35 31 30 30 30 25 29 28 27 20
29 24 21 10 11 26 36 44 51 60 69 77 80 84 76 68 68 62 54 57 55 48 45 40 39 34 32 30 27 29 26 26 29
27 26 19 12 4 10 25 38 54 58 65 73 80 79 73 73 65 59 62 64 60 51 45 38 43 39 33 31 30 31 29 28 29
25 25 19 10 5 10 16 37 50 56 71 77 71 72 68 69 66 65 63 59 51 46 41 36 41 39 36 34 32 32 33 28 28
27 23 17 15 13 16 21 33 45 58 64 68 76 71 62 60 62 56 51 53 48 41 41 40 38 36 36 34 34 32 33 30 30
27 17 17 13 12 15 18 32 48 48 62 73 63 66 64 63 53 52 45 43 44 39 37 40 37 36 33 34 36 35 35 29 27
34 25 19 16 12 16 23 28 42 48 62 65 68 63 65 55 51 45 43 41 37 43 38 46 45 43 38 36 40 40 43 42 35
22 28 28 25 22 20 22 26 43 56 64 65 69 61 46 45 44 47 46 44 42 43 55 54 59 53 51 38 44 34 35 34 41
Wind_Direction_850mb
228 196 203 198 202 198 195 196 194 194 197 199 199 203 205 203 197 202 202 209 203 199 205 210 217 210 228 242 268 284 301 335 13
173 205 203 197 200 199 194 197 195 194 201 203 202 199 200 199 200 193 205 211 200 208 198 216 232 220 226 244 266 271 339 259 27
148 205 201 199 199 200 195 197 197 196 204 208 205 194 196 197 200 199 201 200 205 201 200 200 221 217 236 248 266 273 157 254 210
205 194 195 201 199 200 199 198 198 196 196 194 197 192 193 194 198 201 200 202 200 195 211 219 231 236 236 244 257 229 176 190 231
298 221 202 199 198 197 198 196 196 197 197 196 194 192 193 193 193 196 199 199 196 204 214 222 227 229 232 242 229 199 169 138 181
317 254 217 204 197 195 195 195 195 196 198 196 192 190 193 192 191 196 197 197 204 207 213 216 221 226 228 218 187 167 167 178 158
314 280 241 219 201 198 196 198 197 194 195 194 190 191 191 192 188 192 185 189 197 203 208 217 220 220 218 198 178 167 172 174 155
312 287 253 220 212 199 198 198 196 194 194 191 190 190 187 189 185 185 187 197 200 203 210 216 216 212 199 185 173 169 168 161 157
308 294 266 233 215 206 204 203 198 193 189 189 187 184 182 184 186 185 198 194 203 209 207 210 209 199 189 173 161 202 180 157 163
311 312 281 253 224 216 208 205 198 195 187 185 185 179 184 187 188 190 195 197 205 202 204 209 203 190 183 168 204 212 192 168 170
316 310 293 265 240 219 211 207 200 192 187 183 184 183 191 194 190 191 196 200 198 196 201 204 193 188 187 181 216 204 186 164 174
327 318 304 278 240 222 211 205 194 189 187 184 186 191 192 191 188 193 197 196 192 194 196 194 189 190 188 185 209 193 194 184 185
344 341 330 303 240 210 202 199 191 188 188 193 193 195 191 189 186 194 196 196 197 197 200 193 177 188 190 187 206 199 199 196 185
348 345 351 336 250 212 200 196 192 189 193 196 197 193 188 185 192 198 205 200 201 200 188 182 173 187 189 191 200 196 193 185 179
348 352 2 357 253 198 191 190 194 193 194 197 196 191 191 190 195 193 195 202 198 189 178 185 176 180 187 191 197 197 192 184 179
351 354 348 344 274 227 204 209 209 201 202 198 195 189 191 190 189 188 196 197 193 186 184 177 181 183 187 192 198 205 202 198 200
335 340 335 310 288 266 236 204 202 211 206 202 194 198 189 187 188 194 193 190 193 190 185 183 191 191 193 195 203 209 215 213 214
323 321 314 311 284 256 241 219 211 213 207 191 188 195 188 190 185 188 189 184 193 186 193 191 192 196 197 200 207 213 210 206 207
297 295 287 305 290 266 239 222 218 212 201 194 193 190 191 183 192 185 185 185 191 183 199 196 195 196 195 207 214 208 207 214 216
279 294 271 271 311 293 266 225 211 199 200 201 196 193 184 186 189 184 190 192 194 193 198 204 199 198 196 198 207 213 207 221 216